Change the Weather History Date:

Tuesday, November 27, 2012

  Actual Average Record
Temperature  
Mean Temperature 44 °F -  
Max Temperature 60 °F 56 °F 63 °F (2014)
Min Temperature 29 °F 24 °F 21 °F (2010)
Degree Days  
Heating Degree Days 20    
Moisture  
Dew Point 22 °F    
Average Humidity 45    
Maximum Humidity 69    
Minimum Humidity 24    
Precipitation  
Precipitation 0.00 in - - ()
Sea Level Pressure  
Sea Level Pressure 30.35 in    
Wind  
Wind Speed 7 mph (NNW)    
Max Wind Speed 12 mph    
Max Gust Speed -    
Visibility 10 miles    
Events      
Averages and records for this station are not official NWS values.
T = Trace of Precipitation, MM = Missing Value Source: NWS Daily Summary

Daily Weather History Graph

Daily Weather History Graph

Search for Another Location

Airport or City:

Trip Planner

Search our weather history database for the weather conditions in past years. The results will help you decide how hot, cold, wet, or windy it might be!

Date:

Astronomy

Nov. 27, 2012 Rise Set
Actual Time 6:51 AM MST 4:58 PM MST
Civil Twilight 6:24 AM MST 5:26 PM MST
Nautical Twilight 5:53 AM MST 5:56 PM MST
Astronomical Twilight 5:23 AM MST 6:26 PM MST
Moon 4:31 PM MST (11/27) 6:00 AM MST (11/27)
Length of Visible Light 11h 01m
Length of Day
10h 07m
Waxing Gibbous, 99% of the Moon is Illuminated
Nov 27
Waxing Gibbous
Nov 28
Full
Dec 6
Last Quarter
Dec 13
New
Dec 19
First Quarter

Hourly Weather History & Observations

Time (MST) Temp. Windchill Dew Point Humidity Pressure Visibility Wind Dir Wind Speed Gust Speed Precip Events Conditions
12:15 AM 40.3 °F 34.9 °F 23.9 °F 52% 30.32 in 10.0 mi North 8.1 mph - N/A   Clear
12:55 AM 40.5 °F 34.6 °F 23.7 °F 51% 30.32 in 10.0 mi North 9.2 mph - N/A   Clear
1:15 AM 40.1 °F 33.6 °F 23.7 °F 52% 30.32 in 10.0 mi North 10.4 mph - N/A   Clear
1:35 AM 38.5 °F 34.1 °F 23.5 °F 55% 30.33 in 10.0 mi NNW 5.8 mph - N/A   Clear
1:55 AM 38.3 °F 31.4 °F 23.7 °F 56% 30.34 in 10.0 mi North 10.4 mph - N/A   Clear
2:15 AM 39.0 °F 32.3 °F 23.7 °F 54% 30.34 in 10.0 mi NNW 10.4 mph - N/A   Clear
2:35 AM 39.2 °F 33.6 °F 23.9 °F 54% 30.34 in 10.0 mi North 8.1 mph - N/A   Clear
2:55 AM 38.5 °F 34.1 °F 23.9 °F 56% 30.35 in 10.0 mi NNW 5.8 mph - N/A   Clear
3:15 AM 35.6 °F 30.7 °F 23.2 °F 61% 30.35 in 10.0 mi NNW 5.8 mph - N/A   Clear
3:35 AM 33.6 °F 28.4 °F 22.5 °F 64% 30.35 in 10.0 mi NNW 5.8 mph - N/A   Clear
3:55 AM 32.4 °F 26.9 °F 22.1 °F 66% 30.34 in 10.0 mi NNW 5.8 mph - N/A   Clear
4:15 AM 32.0 °F 27.5 °F 22.1 °F 67% 30.35 in 10.0 mi NNW 4.6 mph - N/A   Clear
4:35 AM 32.7 °F 26.4 °F 22.5 °F 66% 30.35 in 10.0 mi North 6.9 mph - N/A   Clear
4:55 AM 33.8 °F 27.0 °F 23.0 °F 65% 30.36 in 10.0 mi NNW 8.1 mph - N/A   Clear
5:35 AM 33.1 °F 27.7 °F 22.5 °F 65% 30.37 in 10.0 mi NNW 5.8 mph - N/A   Clear
5:55 AM 32.9 °F 25.3 °F 22.6 °F 66% 30.38 in 10.0 mi NNW 9.2 mph - N/A   Clear
6:15 AM 32.2 °F 25.8 °F 21.9 °F 66% 30.38 in 10.0 mi NNW 6.9 mph - N/A   Clear
6:35 AM 32.2 °F 25.8 °F 21.2 °F 64% 30.39 in 10.0 mi NNW 6.9 mph - N/A   Clear
6:55 AM 29.8 °F 24.9 °F 20.8 °F 69% 30.40 in 10.0 mi NNW 4.6 mph - N/A   Clear
7:15 AM 31.1 °F 26.4 °F 21.0 °F 66% 30.40 in 10.0 mi NNW 4.6 mph - N/A   Clear
7:35 AM 32.7 °F 26.4 °F 21.2 °F 63% 30.41 in 10.0 mi NNW 6.9 mph - N/A   Clear
7:55 AM 34.7 °F 28.1 °F 21.9 °F 60% 30.42 in 10.0 mi NNW 8.1 mph - N/A   Clear
8:35 AM 37.4 °F 30.8 °F 22.3 °F 54% 30.43 in 10.0 mi NNW 9.2 mph - N/A   Clear
8:55 AM 38.8 °F 32.6 °F 22.8 °F 53% 30.43 in 10.0 mi North 9.2 mph - N/A   Clear
9:15 AM 40.6 °F 33.8 °F 22.8 °F 49% 30.43 in 10.0 mi North 11.5 mph - N/A   Clear
9:35 AM 41.9 °F 35.9 °F 23.5 °F 48% 30.43 in 10.0 mi North 10.4 mph - N/A   Clear
9:55 AM 43.2 °F 37.4 °F 23.7 °F 46% 30.43 in 10.0 mi North 10.4 mph - N/A   Clear
10:15 AM 44.1 °F 39.0 °F 23.4 °F 44% 30.43 in 10.0 mi North 9.2 mph - N/A   Clear
10:35 AM 45.9 °F 42.3 °F 23.4 °F 41% 30.43 in 10.0 mi North 6.9 mph - N/A   Clear
10:55 AM 47.3 °F - 23.4 °F 39% 30.42 in 10.0 mi North 5.8 mph - N/A   Clear
11:15 AM 48.7 °F - 23.0 °F 36% 30.41 in 10.0 mi North 6.9 mph - N/A   Clear
11:35 AM 50.2 °F - 23.2 °F 35% 30.40 in 10.0 mi North 6.9 mph - N/A   Clear
11:55 AM 52.0 °F - 23.0 °F 32% 30.38 in 10.0 mi NNE 8.1 mph - N/A   Clear
12:15 PM 52.7 °F - 23.0 °F 31% 30.37 in 10.0 mi North 5.8 mph - N/A   Clear
12:35 PM 54.0 °F - 23.2 °F 30% 30.36 in 10.0 mi North 6.9 mph - N/A   Clear
12:55 PM 54.5 °F - 23.0 °F 29% 30.35 in 10.0 mi NNE 4.6 mph - N/A   Clear
1:15 PM 55.2 °F - 23.0 °F 29% 30.34 in 10.0 mi Calm Calm - N/A   Clear
1:35 PM 55.8 °F - 23.2 °F 28% 30.33 in 10.0 mi NNE 3.5 mph - N/A   Clear
1:55 PM 56.7 °F - 23.0 °F 27% 30.33 in 10.0 mi Calm Calm - N/A   Clear
2:15 PM 58.1 °F - 23.4 °F 26% 30.32 in 10.0 mi Calm Calm - N/A   Clear
2:35 PM 58.3 °F - 23.0 °F 26% 30.32 in 10.0 mi South 4.6 mph - N/A   Clear
2:55 PM 59.2 °F - 23.0 °F 25% 30.30 in 10.0 mi Calm Calm - N/A   Clear
3:15 PM 60.1 °F - 23.0 °F 24% 30.31 in 10.0 mi South 3.5 mph - N/A   Clear
3:35 PM 59.7 °F - 23.0 °F 24% 30.30 in 10.0 mi SSE 5.8 mph - N/A   Clear
3:55 PM 60.1 °F - 23.0 °F 24% 30.30 in 10.0 mi SSE 6.9 mph - N/A   Clear
4:15 PM 59.0 °F - 23.4 °F 25% 30.29 in 10.0 mi SSE 5.8 mph - N/A   Clear
4:35 PM 57.6 °F - 23.4 °F 27% 30.29 in 10.0 mi SSE 6.9 mph - N/A   Clear
4:55 PM 54.9 °F - 23.0 °F 29% 30.29 in 10.0 mi SSE 5.8 mph - N/A   Clear
5:15 PM 52.2 °F - 22.1 °F 31% 30.29 in 10.0 mi South 5.8 mph - N/A   Clear
5:55 PM 46.0 °F 43.1 °F 20.1 °F 36% 30.29 in 10.0 mi SSW 5.8 mph - N/A   Clear
6:15 PM 45.5 °F 44.2 °F 19.9 °F 36% 30.29 in 10.0 mi South 3.5 mph - N/A   Clear
6:35 PM 45.3 °F 42.3 °F 19.4 °F 36% 30.30 in 10.0 mi SSW 5.8 mph - N/A   Clear
6:55 PM 43.7 °F 39.7 °F 19.0 °F 37% 30.30 in 10.0 mi SW 6.9 mph - N/A   Clear
7:15 PM 44.6 °F 41.4 °F 19.4 °F 37% 30.30 in 10.0 mi SSW 5.8 mph - N/A   Clear
7:35 PM 41.9 °F 38.2 °F 19.2 °F 40% 30.30 in 10.0 mi SSW 5.8 mph - N/A   Clear
7:55 PM 43.0 °F 38.2 °F 19.6 °F 39% 30.30 in 10.0 mi SSW 8.1 mph - N/A   Clear
8:15 PM 41.5 °F 37.8 °F 19.4 °F 41% 30.30 in 10.0 mi SSW 5.8 mph - N/A   Clear
8:35 PM 43.0 °F 39.5 °F 20.1 °F 40% 30.31 in 10.0 mi South 5.8 mph - N/A   Clear
8:55 PM 40.6 °F 37.5 °F 19.6 °F 43% 30.31 in 10.0 mi South 4.6 mph - N/A   Clear
9:15 PM 40.8 °F 38.8 °F 20.5 °F 44% 30.31 in 10.0 mi SW 3.5 mph - N/A   Clear
9:35 PM 39.6 °F 36.3 °F 20.5 °F 46% 30.33 in 10.0 mi NNW 4.6 mph - N/A   Clear
9:55 PM 40.1 °F 36.1 °F 20.7 °F 46% 30.33 in 10.0 mi North 5.8 mph - N/A   Clear
10:15 PM 39.7 °F 37.6 °F 20.7 °F 46% 30.33 in 10.0 mi NNW 3.5 mph - N/A   Clear
10:35 PM 36.3 °F 33.7 °F 19.2 °F 50% 30.33 in 10.0 mi WNW 3.5 mph - N/A   Clear
10:55 PM 37.6 °F 35.1 °F 19.8 °F 49% 30.34 in 10.0 mi West 3.5 mph - N/A   Clear
11:15 PM 37.6 °F - 19.4 °F 48% 30.34 in 10.0 mi Calm Calm - N/A   Clear
11:35 PM 35.1 °F - 18.7 °F 51% 30.35 in 10.0 mi Calm Calm - N/A   Clear
11:55 PM 34.3 °F 31.4 °F 18.5 °F 52% 30.35 in 10.0 mi WNW 3.5 mph - N/A   Clear